Temp
74 76 79 79 79 78 79 78 78 78 78 78 78 78 78 78 78 78 78 78 78 78 78 78 78 78 78 78 78 78 78 78 78 78 79 79 78 79 80 80 80 80 79
76 76 79 78 79 79 78 78 78 77 77 78 78 78 78 78 78 78 77 77 77 78 78 78 78 77 78 78 78 78 78 78 78 78 78 79 78 78 79 81 80 78 79
76 75 77 78 78 78 78 78 77 77 77 77 77 78 78 77 78 77 77 77 77 78 78 78 78 77 77 78 78 77 77 78 78 78 78 71 72 79 81 79 80 79 78
76 74 75 78 78 78 78 77 77 77 77 77 77 78 77 77 77 77 77 77 77 78 78 78 78 78 78 78 78 77 77 77 77 78 71 71 72 78 80 80 80 79 79
74 74 74 78 78 78 78 77 77 77 77 77 77 78 78 77 77 77 77 77 77 78 78 78 78 78 78 78 78 77 77 77 77 76 70 67 66 76 79 80 79 80 79
74 75 77 78 78 78 78 77 77 77 77 77 77 77 77 77 77 76 77 77 77 78 78 78 78 78 78 78 78 77 77 77 77 72 70 70 71 75 78 80 80 79 79
75 76 76 78 78 78 78 77 77 77 77 77 77 77 77 77 76 76 76 77 77 77 77 78 78 77 76 76 76 76 76 76 74 70 70 70 70 75 79 79 79 79 78
77 76 76 78 78 77 77 77 77 76 76 77 77 77 77 76 76 76 76 77 77 77 77 77 77 76 76 75 75 76 76 76 76 70 70 70 72 76 79 78 78 78 78
79 77 75 76 77 78 77 77 76 76 76 76 76 76 76 76 76 76 76 76 77 76 76 76 76 76 75 75 75 75 75 76 71 69 71 70 75 77 79 78 78 78 78
79 77 75 75 76 75 75 77 76 76 76 76 76 76 76 76 76 76 75 75 76 76 76 76 76 75 75 74 74 74 75 76 70 69 68 68 75 77 79 78 78 78 77
79 76 75 74 75 74 74 76 76 77 76 76 76 76 74 71 71 73 74 74 76 76 76 76 75 75 74 74 74 74 75 67 67 67 67 72 75 78 79 78 77 77 77
78 74 73 73 73 74 76 74 74 74 73 73 73 72 71 68 67 72 72 76 76 76 76 75 75 75 74 66 66 72 67 67 67 67 67 73 75 77 79 78 77 77 76
79 77 74 74 73 73 75 73 73 72 71 71 70 69 69 69 67 68 66 68 70 74 69 72 70 68 67 65 65 64 66 67 66 68 71 74 75 78 79 78 77 77 76
82 77 76 75 73 72 74 73 72 71 70 70 70 68 68 67 65 65 65 65 65 65 65 65 64 64 65 66 66 66 66 66 65 67 66 74 74 77 78 78 78 77 76
79 78 76 75 74 73 74 72 72 71 71 70 69 68 68 66 65 65 65 64 64 63 63 63 63 64 63 65 66 68 68 67 67 65 65 74 74 76 78 78 76 76 76
79 78 73 75 74 74 75 73 72 72 71 70 70 69 69 69 67 66 65 64 64 63 63 63 63 63 63 64 65 66 67 67 70 67 65 67 73 75 76 76 77 78 77
78 77 72 73 75 74 75 74 72 72 71 70 70 70 70 69 68 68 65 65 65 63 63 63 63 62 62 63 64 65 65 67 66 66 66 67 69 75 75 75 76 76 77
74 75 75 78 74 74 76 74 74 73 72 72 70 70 71 70 69 66 64 64 64 63 63 62 61 61 61 61 61 62 63 64 65 65 65 65 66 69 74 75 76 76 76
74 76 74 71 72 73 74 72 73 72 72 69 67 69 70 70 69 67 65 65 64 63 62 62 61 60 60 60 60 61 61 61 62 65 65 66 65 68 69 72 74 74 74
74 72 70 70 69 70 69 67 67 67 66 65 67 67 69 70 69 65 65 64 63 62 62 61 61 61 60 60 61 61 60 60 61 61 63 65 65 65 64 66 67 70 73
72 71 70 68 67 70 70 69 68 67 66 65 65 67 67 67 68 66 64 64 63 62 62 61 60 60 60 61 59 58 58 60 60 60 61 62 64 66 65 64 65 65 69
72 71 67 67 69 70 73 70 67 67 65 67 65 68 69 68 68 66 65 63 62 61 60 60 59 58 59 61 58 56 54 57 60 60 60 61 62 63 65 66 65 66 67
68 68 67 68 68 68 68 69 66 66 65 65 64 64 65 68 67 66 64 62 62 61 60 59 59 58 56 57 59 57 53 52 54 56 59 60 61 60 61 64 65 65 65
66 66 67 68 68 69 70 69 70 63 62 63 64 63 64 67 67 67 65 63 62 61 60 60 60 58 57 56 56 59 58 57 53 51 56 58 59 61 61 61 63 64 64
65 65 67 67 68 67 67 69 68 64 63 61 62 62 63 64 66 67 65 63 62 61 61 60 60 59 58 56 56 56 56 56 57 54 51 54 57 58 59 60 61 62 64
64 66 66 66 64 66 67 65 65 64 61 61 61 60 60 61 62 64 65 62 62 61 61 61 61 60 59 58 57 57 56 55 55 54 54 52 54 59 61 63 61 61 63
MSLP
1008.29 1008.17 1008.69 1009.22 1009.61 1009.74 1009.80 1010.08 1010.48 1010.93 1011.27 1011.47 1011.66 1011.89 1012.31 1012.58 1012.82 1012.98 1013.13 1013.26 1013.38 1013.52 1013.58 1013.70 1013.77 1013.86 1013.89 1013.96 1013.84 1013.91 1014.09 1014.06 1013.93 1013.86 1013.86 1013.84 1013.97 1013.77 1013.65 1013.63 1013.74 1013.98 1013.95
1006.63 1007.67 1008.39 1008.80 1009.23 1009.58 1009.65 1009.93 1010.39 1010.83 1011.24 1011.44 1011.69 1011.97 1012.20 1012.47 1012.67 1013.01 1013.18 1013.35 1013.43 1013.57 1013.68 1013.78 1013.82 1013.90 1014.02 1014.00 1013.90 1013.86 1014.02 1014.13 1014.00 1013.92 1013.87 1013.84 1013.90 1013.95 1013.77 1013.52 1013.55 1013.74 1013.98
1006.53 1007.54 1008.22 1008.74 1009.03 1009.32 1009.60 1009.92 1010.36 1010.80 1011.04 1011.31 1011.61 1011.96 1012.19 1012.35 1012.60 1012.91 1013.04 1013.21 1013.48 1013.65 1013.65 1013.71 1013.71 1013.72 1013.84 1013.97 1013.88 1013.84 1013.87 1014.02 1014.06 1014.00 1013.82 1013.90 1013.91 1013.76 1013.65 1013.67 1013.64 1013.71 1013.78
1006.51 1007.47 1008.15 1008.62 1008.91 1009.29 1009.64 1009.83 1010.29 1010.77 1011.02 1011.26 1011.71 1012.02 1012.17 1012.26 1012.46 1012.71 1012.86 1013.08 1013.29 1013.44 1013.55 1013.56 1013.56 1013.58 1013.67 1013.83 1013.75 1013.65 1013.76 1013.87 1013.93 1013.92 1013.89 1013.88 1013.91 1013.62 1013.53 1013.59 1013.63 1013.64 1013.73
1007.10 1007.46 1007.76 1008.12 1008.42 1008.97 1009.30 1009.58 1009.95 1010.37 1010.77 1011.09 1011.43 1011.76 1011.98 1012.07 1012.23 1012.43 1012.62 1012.82 1013.08 1013.16 1013.24 1013.27 1013.32 1013.35 1013.45 1013.55 1013.59 1013.59 1013.60 1013.72 1013.82 1013.76 1013.81 1013.81 1013.86 1013.55 1013.23 1013.33 1013.49 1013.48 1013.70
1006.91 1007.12 1007.17 1007.41 1007.77 1008.26 1008.76 1009.12 1009.46 1009.83 1010.22 1010.69 1010.97 1011.25 1011.61 1011.71 1011.87 1012.03 1012.28 1012.58 1012.75 1012.84 1012.87 1012.97 1013.06 1013.12 1013.21 1013.27 1013.39 1013.44 1013.49 1013.52 1013.57 1013.70 1013.70 1013.67 1013.62 1013.37 1013.04 1012.68 1013.20 1013.44 1013.65
1006.32 1006.54 1006.80 1006.95 1007.46 1007.93 1008.31 1008.80 1009.00 1009.26 1009.70 1010.14 1010.51 1010.77 1011.09 1011.37 1011.56 1011.73 1011.96 1012.23 1012.42 1012.58 1012.63 1012.68 1012.80 1012.85 1012.97 1013.09 1013.15 1013.22 1013.28 1013.31 1013.37 1013.54 1013.58 1013.50 1013.40 1013.11 1012.86 1012.64 1013.06 1013.31 1013.57
1005.19 1006.21 1006.72 1006.98 1007.15 1007.47 1007.79 1008.20 1008.51 1008.96 1009.18 1009.57 1010.00 1010.30 1010.68 1011.08 1011.46 1011.70 1011.76 1011.94 1012.13 1012.29 1012.41 1012.42 1012.60 1012.70 1012.71 1012.80 1012.95 1013.04 1013.04 1013.07 1013.12 1013.30 1013.39 1013.39 1013.25 1012.97 1012.74 1012.68 1012.92 1013.14 1013.35
1005.13 1005.58 1006.42 1006.70 1006.88 1007.09 1007.33 1007.69 1008.13 1008.53 1008.96 1009.22 1009.59 1009.94 1010.36 1010.81 1011.22 1011.50 1011.64 1011.83 1011.98 1012.09 1012.16 1012.24 1012.34 1012.39 1012.46 1012.57 1012.71 1012.79 1012.90 1012.89 1012.94 1013.17 1013.17 1013.18 1013.07 1012.89 1012.69 1012.74 1012.71 1012.86 1013.11
1004.74 1005.13 1005.48 1006.03 1006.62 1007.03 1007.23 1007.32 1007.62 1007.96 1008.38 1008.80 1009.22 1009.50 1009.98 1010.41 1010.87 1011.27 1011.43 1011.63 1011.73 1011.84 1011.85 1012.01 1012.11 1012.15 1012.22 1012.32 1012.46 1012.60 1012.66 1012.67 1012.74 1012.94 1013.01 1012.95 1012.85 1012.83 1012.67 1012.76 1012.78 1012.74 1013.00
1005.07 1004.80 1005.27 1005.27 1005.87 1006.48 1006.86 1007.14 1007.36 1007.69 1008.07 1008.47 1008.80 1009.07 1009.54 1010.06 1010.50 1010.95 1011.17 1011.36 1011.54 1011.60 1011.67 1011.67 1011.81 1012.00 1012.11 1012.16 1012.20 1012.35 1012.47 1012.62 1012.68 1012.78 1012.83 1012.64 1012.57 1012.52 1012.42 1012.55 1012.71 1012.73 1012.91
1004.39 1004.65 1004.88 1005.13 1005.52 1006.06 1006.33 1006.97 1007.25 1007.58 1007.95 1008.26 1008.57 1008.70 1009.01 1009.69 1010.18 1010.53 1010.90 1011.00 1011.23 1011.31 1011.57 1011.60 1011.59 1011.77 1011.84 1012.04 1012.19 1012.18 1012.26 1012.43 1012.55 1012.54 1012.52 1012.34 1012.29 1012.25 1012.10 1012.30 1012.61 1012.76 1012.97
1002.96 1003.78 1004.17 1004.44 1004.82 1005.34 1005.70 1006.38 1006.90 1007.32 1007.58 1007.91 1008.25 1008.50 1008.70 1009.35 1009.92 1010.30 1010.71 1010.66 1010.83 1010.98 1011.41 1011.47 1011.47 1011.66 1011.75 1011.85 1012.04 1012.11 1012.11 1012.11 1012.23 1012.23 1012.07 1012.02 1012.13 1012.03 1012.00 1012.24 1012.53 1012.67 1012.79
1002.00 1002.60 1003.02 1003.46 1003.95 1004.37 1005.11 1005.54 1006.20 1006.80 1007.06 1007.51 1007.72 1008.15 1008.60 1009.26 1009.74 1010.18 1010.43 1010.41 1010.64 1010.85 1011.16 1011.35 1011.53 1011.60 1011.69 1011.65 1011.70 1011.68 1011.79 1011.73 1011.81 1011.89 1011.83 1011.76 1011.79 1011.78 1011.93 1012.07 1012.31 1012.52 1012.68
1001.72 1001.57 1002.04 1002.55 1003.06 1003.63 1004.39 1004.91 1005.54 1005.88 1006.35 1006.77 1007.27 1007.73 1008.10 1008.81 1009.30 1009.65 1010.00 1010.07 1010.30 1010.67 1010.98 1011.19 1011.43 1011.54 1011.65 1011.57 1011.47 1011.36 1011.49 1011.44 1011.35 1011.45 1011.46 1011.31 1011.30 1011.20 1011.41 1011.82 1012.30 1012.48 1012.48
1001.10 1000.73 1001.24 1001.76 1002.20 1002.90 1003.52 1003.96 1004.41 1004.99 1005.54 1006.19 1006.71 1007.12 1007.54 1007.91 1008.58 1009.10 1009.51 1009.89 1010.11 1010.26 1010.45 1010.57 1010.93 1011.16 1011.26 1011.31 1011.36 1011.16 1011.07 1011.07 1010.92 1010.97 1010.98 1011.02 1010.82 1010.84 1011.28 1011.74 1011.95 1012.15 1012.41
1000.44 1000.35 1000.61 1000.97 1001.59 1002.11 1002.48 1003.08 1003.68 1003.98 1004.85 1005.58 1006.10 1006.49 1007.00 1007.28 1007.78 1008.40 1008.87 1009.22 1009.53 1009.84 1010.22 1010.43 1010.67 1010.89 1011.08 1011.15 1011.14 1011.00 1010.92 1010.74 1010.83 1010.71 1010.61 1010.61 1010.47 1010.60 1011.09 1011.53 1011.90 1012.11 1012.18
999.78 999.84 999.81 1000.14 1000.60 1001.17 1001.58 1002.02 1002.69 1003.23 1003.99 1004.82 1005.54 1005.95 1006.46 1006.87 1007.21 1008.00 1008.56 1008.84 1008.99 1009.55 1010.11 1010.32 1010.47 1010.74 1010.87 1010.88 1010.87 1010.69 1010.67 1010.60 1010.57 1010.49 1010.53 1010.61 1010.58 1010.63 1010.98 1011.25 1011.52 1011.82 1012.11
998.74 998.85 999.13 999.85 999.98 1000.33 1000.98 1001.51 1002.19 1002.71 1003.61 1004.44 1005.13 1005.71 1006.08 1006.51 1007.04 1007.68 1008.22 1008.50 1008.56 1009.20 1009.65 1009.85 1010.14 1010.43 1010.63 1010.61 1010.63 1010.53 1010.47 1010.41 1010.33 1010.37 1010.57 1010.50 1010.54 1010.58 1010.79 1011.04 1011.31 1011.61 1011.96
998.11 998.26 998.71 999.40 999.69 1000.16 1000.98 1001.62 1002.27 1002.87 1003.58 1004.25 1004.92 1005.31 1005.85 1006.30 1006.74 1007.55 1007.91 1008.16 1008.43 1009.04 1009.48 1009.68 1009.88 1009.94 1009.98 1010.04 1010.33 1010.44 1010.31 1010.18 1010.19 1010.23 1010.33 1010.25 1010.36 1010.47 1010.78 1010.91 1011.15 1011.45 1011.76
997.81 998.22 998.61 999.02 999.52 999.98 1000.86 1001.47 1002.18 1002.80 1003.55 1004.24 1004.59 1005.08 1005.88 1006.33 1006.61 1007.31 1007.54 1007.79 1008.33 1008.80 1008.93 1009.22 1009.44 1009.63 1009.61 1009.84 1010.30 1010.35 1010.29 1010.23 1010.19 1010.04 1010.11 1010.26 1010.34 1010.34 1010.61 1010.78 1011.14 1011.31 1011.51
997.52 997.60 998.01 998.31 998.73 999.40 999.98 1000.90 1001.77 1002.74 1003.64 1004.08 1004.64 1005.14 1005.58 1005.99 1006.42 1006.80 1007.14 1007.55 1008.12 1008.62 1008.85 1009.01 1009.23 1009.30 1009.32 1009.49 1009.82 1010.35 1010.53 1010.50 1010.11 1009.78 1009.84 1010.10 1010.16 1010.37 1010.54 1010.58 1010.78 1011.04 1011.23
997.17 997.41 997.73 998.06 998.61 999.39 1000.06 1000.87 1002.03 1002.90 1003.81 1004.48 1004.99 1005.24 1005.40 1005.65 1006.12 1006.51 1006.92 1007.50 1007.82 1008.17 1008.37 1008.50 1008.65 1008.87 1009.15 1009.39 1009.38 1009.73 1010.33 1010.34 1010.30 1009.89 1009.70 1009.75 1009.85 1010.09 1010.31 1010.40 1010.44 1010.80 1011.15
997.14 997.68 997.94 998.59 998.83 999.38 999.95 1000.80 1001.86 1002.99 1003.87 1004.21 1004.56 1004.90 1005.27 1005.67 1006.01 1006.49 1006.87 1007.00 1007.37 1007.74 1008.09 1008.13 1008.16 1008.39 1008.73 1009.18 1009.42 1009.29 1009.30 1009.59 1010.18 1010.19 1009.92 1009.76 1009.84 1010.00 1010.12 1010.25 1010.45 1010.58 1010.83
997.42 997.80 998.34 998.86 999.47 999.88 1000.25 1000.99 1002.09 1003.11 1003.70 1004.20 1004.59 1005.05 1005.49 1005.86 1006.21 1006.51 1006.61 1006.89 1007.14 1007.55 1007.71 1007.79 1007.98 1008.18 1008.37 1008.64 1008.90 1009.06 1009.28 1009.63 1009.83 1010.29 1010.36 1010.15 1010.10 1010.13 1010.14 1010.16 1010.20 1010.44 1010.60
997.75 998.23 998.75 999.27 1000.04 1000.21 1000.79 1001.61 1002.33 1003.13 1003.95 1004.49 1004.95 1005.42 1005.84 1006.09 1006.28 1006.50 1006.61 1006.77 1007.03 1007.19 1007.30 1007.38 1007.57 1007.81 1007.94 1008.17 1008.39 1008.62 1008.86 1009.24 1009.58 1009.94 1010.22 1010.37 1010.28 1010.38 1010.28 1010.26 1010.30 1010.38 1010.36
Wind_Speed
7 15 22 20 19 18 19 19 18 17 16 16 16 15 14 13 12 11 10 9 8 8 7 5 4 3 2 1 1 1 3 3 4 4 4 4 4 4 4 8 12 9 10
16 16 23 21 20 19 19 19 18 17 16 16 16 16 15 13 12 11 10 8 7 6 5 5 4 2 1 1 1 2 3 4 4 4 5 5 6 5 6 6 6 10 11
17 16 18 20 19 19 18 19 18 17 17 16 16 15 15 14 13 11 10 9 8 7 6 4 3 3 3 4 3 3 3 5 5 6 6 3 4 8 6 7 6 11 12
16 14 13 20 19 19 18 19 18 17 16 16 16 16 16 15 14 13 11 10 9 8 7 6 5 5 5 6 6 5 5 5 6 7 3 4 5 8 9 9 8 11 11
12 12 14 21 20 20 20 20 20 19 17 17 17 16 16 16 14 13 12 11 11 10 9 8 7 8 8 9 8 7 6 6 6 6 5 5 4 8 12 12 11 11 12
13 14 19 24 23 23 22 21 21 20 20 19 19 18 17 16 16 15 14 13 12 11 10 10 11 11 11 10 9 8 10 8 8 4 5 6 6 10 14 11 11 10 11
15 15 18 24 23 23 23 23 22 22 21 20 19 19 19 17 17 17 16 14 13 12 12 11 11 9 7 9 11 9 9 10 5 5 5 5 5 11 10 11 10 9 10
19 15 14 22 24 24 24 24 23 22 23 22 21 20 19 18 17 16 16 15 14 13 13 12 11 9 8 8 9 9 10 11 8 5 5 5 8 12 10 11 11 10 10
12 15 13 16 20 24 24 24 23 23 22 22 21 20 19 17 16 15 15 14 14 14 14 13 13 12 10 10 10 10 11 13 6 4 5 4 8 8 9 11 12 11 11
12 14 16 15 15 15 15 24 24 24 23 23 21 20 18 17 16 15 14 14 14 14 15 14 13 12 11 10 11 12 12 14 6 5 4 4 11 11 11 12 13 12 11
7 12 12 15 16 14 14 15 21 23 23 22 21 21 16 8 8 11 12 14 15 15 15 14 13 11 10 11 11 12 13 3 5 3 3 12 14 14 14 13 11 11 11
14 10 12 14 14 14 11 11 13 12 11 11 12 13 9 8 7 8 11 14 16 16 15 13 13 13 10 3 3 9 3 4 4 5 4 16 15 14 13 14 13 12 12
13 10 15 14 15 14 13 9 7 7 7 8 11 9 8 7 5 5 3 3 6 12 4 8 6 4 5 4 4 4 5 5 4 5 8 17 13 14 13 13 14 12 13
8 14 16 17 15 15 10 10 10 9 8 8 10 11 8 5 5 4 4 4 4 3 5 5 3 4 6 6 6 5 7 5 3 4 6 15 14 17 16 14 13 14 13
8 8 16 17 16 14 15 9 10 11 10 10 9 10 8 7 6 5 5 4 4 4 4 5 5 4 5 5 5 5 5 6 6 4 3 14 12 12 15 16 12 12 15
11 11 12 16 16 15 15 14 12 10 10 9 9 10 12 8 7 6 5 5 4 5 5 5 5 5 5 5 6 6 6 5 5 5 4 5 10 8 13 14 16 15 14
10 10 11 15 15 17 19 14 11 10 10 9 9 10 13 11 10 9 5 4 4 4 5 4 4 3 3 4 6 5 4 5 5 6 4 4 3 10 14 15 13 13 16
9 11 9 10 16 17 17 13 11 10 10 9 8 8 12 11 9 6 5 5 5 5 5 4 4 4 4 4 4 4 4 4 5 5 4 4 4 3 9 14 15 13 15
11 11 10 10 13 15 12 9 9 9 8 6 5 7 9 10 9 6 5 5 5 4 4 4 4 3 4 4 4 4 4 4 5 2 5 5 6 5 4 8 11 12 13
9 8 3 7 8 9 7 6 4 6 5 5 7 7 10 8 8 6 5 5 5 4 4 3 5 4 4 4 3 3 4 4 3 4 5 4 5 5 5 5 4 6 12
8 9 10 10 9 10 8 7 6 7 6 5 5 9 6 5 8 9 5 5 4 5 6 6 3 6 4 3 1 2 2 4 5 4 3 3 4 5 6 5 4 4 5
8 8 8 9 12 9 8 5 5 6 3 5 5 7 9 11 8 6 6 5 5 3 5 3 5 2 2 5 3 1 1 3 3 5 3 4 6 4 4 6 6 6 5
9 9 9 10 10 7 9 9 5 5 4 4 3 3 4 8 7 7 6 5 5 4 4 3 4 6 3 3 4 4 2 4 0 2 5 4 4 3 3 5 5 6 5
7 6 8 8 10 10 10 9 12 5 4 3 4 3 4 6 6 6 6 5 5 3 4 3 3 3 3 4 1 3 1 3 3 2 2 3 2 3 3 3 4 5 6
8 8 9 10 9 8 9 11 8 6 3 3 3 6 5 4 6 5 6 5 3 3 4 4 3 4 3 3 3 2 3 1 2 2 1 1 3 1 1 3 4 4 5
7 8 9 10 7 9 9 9 9 9 6 6 5 5 4 3 3 3 4 4 4 4 5 4 5 5 5 4 3 3 3 3 4 3 2 1 3 1 3 3 2 4 4
Wind_Direction
196 167 171 170 162 155 147 141 141 141 141 140 135 133 133 131 128 123 120 118 116 118 117 114 109 98 60 15 36 4 336 335 348 347 349 354 332 318 209 170 157 147 139
149 167 171 167 162 158 150 149 149 149 150 146 144 144 143 142 138 139 137 134 135 136 136 136 134 140 188 244 276 298 301 311 320 317 315 318 323 310 270 193 199 151 148
151 161 167 165 163 159 156 153 154 158 156 152 152 154 154 152 151 153 152 154 162 167 168 173 182 194 231 254 249 256 270 289 298 297 298 328 303 296 292 236 180 168 161
149 154 161 166 163 162 162 158 160 164 160 158 161 164 164 161 161 165 167 171 181 187 190 198 211 226 242 252 248 243 252 263 278 288 304 292 297 294 290 220 199 178 170
144 156 165 169 166 169 168 166 166 166 166 166 169 170 171 170 169 172 177 184 193 200 205 216 228 233 242 249 247 247 242 248 260 274 286 282 287 287 286 248 199 188 182
159 169 174 174 173 174 173 172 172 170 171 175 176 176 179 179 179 180 184 192 199 206 214 226 235 238 241 246 254 248 244 239 251 262 273 282 288 284 290 161 179 189 188
173 180 180 176 176 177 175 179 177 175 177 180 182 182 185 187 187 188 190 197 204 213 219 231 244 252 246 250 258 251 243 239 236 246 265 273 283 294 259 162 171 182 188
168 178 183 181 182 182 180 182 181 182 182 184 187 188 191 192 193 197 198 202 207 215 225 233 242 238 228 232 243 247 239 239 245 230 262 280 284 283 207 167 165 173 184
173 169 177 186 189 187 186 185 184 186 188 189 190 192 193 195 197 202 205 209 212 219 225 233 236 237 236 238 242 243 246 243 230 241 260 260 279 287 203 184 171 170 177
172 177 178 184 191 192 193 191 188 189 192 193 193 193 195 195 199 203 209 216 219 225 219 229 236 236 239 242 245 245 246 240 243 234 246 255 264 267 239 208 187 168 175
199 188 184 181 186 194 195 199 194 195 195 196 196 195 193 190 194 201 211 219 224 220 225 225 233 239 241 246 244 246 247 230 240 243 244 261 267 261 255 211 202 176 176
200 193 184 185 187 190 192 196 198 198 198 199 201 196 185 180 184 195 216 225 225 224 228 227 231 240 244 215 248 255 239 219 227 236 236 257 265 261 238 214 201 182 180
191 189 192 190 189 185 191 186 193 196 195 201 201 190 181 179 188 198 207 227 213 227 223 225 229 234 227 211 224 229 246 225 213 229 244 251 256 260 234 203 200 192 186
221 189 194 193 188 190 184 186 189 192 193 199 198 185 177 178 184 201 204 202 196 200 203 206 216 227 236 229 224 226 238 231 196 223 239 255 250 249 239 217 210 197 188
240 204 196 189 190 186 190 183 189 193 197 198 192 190 181 178 185 191 210 189 199 179 203 203 216 213 231 237 242 229 230 225 217 212 216 246 257 250 211 207 212 213 188
244 242 182 192 191 179 191 188 190 188 193 190 190 193 186 176 182 186 189 195 202 191 202 194 197 210 219 209 231 246 244 233 225 229 218 231 263 219 192 197 216 212 211
233 244 181 189 184 185 192 192 186 186 179 185 189 185 185 184 184 183 187 190 188 192 191 179 190 192 207 223 229 234 251 249 231 232 236 237 242 198 191 198 215 221 215
231 215 209 180 181 189 191 188 186 178 176 180 177 176 184 185 179 164 169 183 181 170 178 183 187 213 224 220 238 249 250 280 237 219 206 211 221 193 199 210 214 216 219
212 208 203 187 183 188 190 178 180 165 167 163 149 166 174 173 163 163 174 192 182 177 183 193 202 202 221 223 228 245 253 252 253 201 217 213 209 208 201 214 216 208 211
214 234 172 190 181 168 142 122 116 124 129 137 156 162 158 165 165 168 185 193 168 160 191 203 222 220 207 223 230 233 253 245 242 217 223 213 212 195 215 197 211 209 202
226 193 190 168 166 149 156 152 145 153 140 124 137 144 145 171 190 195 193 191 168 187 199 212 220 227 221 163 141 302 286 260 255 234 208 227 212 207 196 187 200 182 199
193 202 172 172 160 164 163 156 117 132 109 138 147 162 176 181 184 176 187 185 178 204 244 221 203 210 234 176 162 126 226 299 272 250 216 206 213 193 206 204 185 190 184
185 181 168 155 141 128 116 111 89 76 76 96 120 147 192 182 170 174 171 170 186 183 229 223 213 188 179 212 209 146 137 221 209 313 239 221 218 197 186 209 206 178 170
174 125 110 118 127 131 131 116 137 133 140 181 165 152 154 161 166 146 160 159 176 177 205 224 206 184 146 177 202 247 170 138 168 336 330 240 211 232 233 200 185 185 169
142 129 121 121 124 128 118 128 132 124 127 132 104 117 126 118 126 148 149 171 162 198 204 207 197 191 181 164 179 153 216 152 123 142 277 288 57 15 147 196 177 185 167
116 110 113 117 119 115 114 126 130 135 131 116 108 113 123 110 117 164 160 169 184 193 204 207 209 203 198 191 186 194 172 168 181 158 165 255 158 142 74 57 139 200 182